RADCAL

Satellite information

Favourite Embed

Satellite Type and Status

PAYLOADIN ORBIT

Key statistics

Satellite RADCAL at a glance.

Uptime

11755

Days in orbit

Revolutions

≈ 14.2

Per day

Orbit

LEO

Low Earth Orbit

Inclination

89.5

Latest

Satellite identification and parameters

Extended collection of information and parameters for RADCAL.

Object identification

Identified? True

Debris? False

Object name: RADCAL

International designator: 1993-041A

Object number (NORAD): 22698

Object ID (CCSDS): 22698

Country: UNITED STATES OF AMERICA (US)

Current information (Y/N): Y

RCS size: MEDIUM

Orbital parameters

Period: 101.118 minutes

Inclination: 89.4907 deg

SMA: 7189.729 km

Apoapsis: 876.486 km

Periapsis: 746.702 km

RAAN: 77.0354 deg

Eccentricy: 0.00902564

Argument of periapsis: 57.2202 deg

Mean anomaly: 303.7646 deg

Mean motion: 14.24078752 rev/day

Mean motion (dot): 0.00000204 rev/day2

B* drag term: 0.000079352592 1/REarth

Two-line elements (TLE)

Creation date: Aug. 31, 2025, 2:26 a.m.

Reference frame: TEME

Reference center: EARTH

Epoch: Aug. 30, 2025, 7:06 p.m. UTC

TLE line 0: 0 RADCAL

TLE line 1: 1 22698U 93041A 25242.79585437 .00000204 00000-0 79353-4 0 9994

TLE line 2: 2 22698 89.4907 77.0354 0090256 57.2202 303.7646 14.24078752670868

Live tracking on map

Real-time ground track for satellite RADCAL.

In-orbit conjunctions

A list of the most updated potential collisions computed for object RADCAL.

Target Orbit TCA Probability of collision Miss distance Type
COSMOS 1275 DEB LEO 2025-04-27 03:29:33 0.0001291492 247.0 (m) DEBRIS
CZ-6A DEB LEO 2025-04-23 12:32:35 0.0008542087 473.0 (m) DEBRIS
FENGYUN 1C DEB SSO 2025-01-30 04:28:21 0.0001979746 671.0 (m) DEBRIS
CZ-6A R/B LEO 2025-01-20 08:20:07 0.0001624277 828.0 (m) ROCKET BODY
FENGYUN 1C DEB SSO 2025-01-02 10:58:04 0.0002121271 74.0 (m) DEBRIS

Associated space launch

RadCal (Radar Calibration) is small satellite to calibrate the Space Command radars to determine orbital positions of other satellites to within a few meters.

RADCAL was lifted into orbit during the mission ‘Scout G-1 | RADCAL’, on board a Scout G-1 space rocket.

The launch took place on June 25, 1993, 11:30 p.m. from Space Launch Complex 5.

For more information about the launch, click the button.

Launch to space Scout G-1 | RADCAL
Scout G-1 | RADCAL

Agency: N/A

Status: Launch Successful

Launch date: June 25, 1993, 11:30 p.m. UTC

Rocket: Scout G-1

Launch pad: Space Launch Complex 5

Location: Vandenberg SFB, CA, USA

...

Latest news about this satellite

There are no fresh news available about this satellite. Check back as we update our databases every day.


Newsletter sign-up

Weekly statistics, charts and insights to help you stay on top of the space industry.